Location: Владивосток
(43.1151°N, 131.8856°E)
Time: 15:36:52
(UTC+10:00)

SEEDS - Pass Details

Date: 27 April 2024
Orbit: 551 x 562 km, 97.7° (Epoch: 19 May)

Event Time Altitude Azimuth Distance (km) Brightness Sun altitude
Rises 04:27:57 0° 24° (NNE) 2,738 ? -17.3°
Reaches altitude 10° 04:30:20 10° 36° (NE) 1,838 ? -16.9°
Maximum altitude 04:33:45 27° 96° (E) 1,077 ? -16.5°
Drops below altitude 10° 04:37:08 10° 155° (SSE) 1,824 ? -16.0°
Enters shadow 04:39:02 - 166° (SSE) 2,537 ? -15.7°
